Torna al catalogo

USA 283

AttivoMilitareGEO
NORAD 43339·PAYLOAD·🇺🇸 United States

Lanciato Apr 14, 2018 da Cape Canaveral Space Force Station

Loading…

TLE

AggiornatoSource: Space-Track

Epoca: Sep 14, 2026, 12:43 UTC

1 43339U 18036A   26257.53041537  .00000000  00000-0  00000+0 0  9999
2 43339   0.0162 153.2057 0000107 321.3235 203.9934  1.00272753 26187

Traccia USA 283 in tempo reale con AllMySat

Download on the App Store